TimeEST,TemperatureF,Dew PointF,Humidity,Sea Level PressureIn,VisibilityMPH,Wind Direction,Wind SpeedMPH,Gust SpeedMPH,PrecipitationIn,Events,Conditions,WindDirDegrees,DateUTC
12:56 AM,37.9,37.9,100,30.20,5.0,North,3.5,-,N/A,,Partly Cloudy,10,2012-11-22 05:56:00
1:56 AM,43.0,42.1,97,30.21,10.0,NE,3.5,-,N/A,,Overcast,40,2012-11-22 06:56:00
2:56 AM,45.0,44.1,97,30.19,10.0,Calm,Calm,-,N/A,,Overcast,0,2012-11-22 07:56:00
3:14 AM,44.6,44.6,100,30.19,10.0,Calm,Calm,-,N/A,,Overcast,0,2012-11-22 08:14:00
3:56 AM,46.0,44.1,93,30.20,10.0,NNE,3.5,-,N/A,,Overcast,30,2012-11-22 08:56:00
4:38 AM,46.4,42.8,87,30.20,10.0,NE,4.6,-,N/A,,Overcast,40,2012-11-22 09:38:00
4:56 AM,45.0,41.0,86,30.21,10.0,NNE,3.5,-,N/A,,Mostly Cloudy,30,2012-11-22 09:56:00
5:27 AM,46.4,42.8,87,30.21,10.0,NNE,3.5,-,N/A,,Overcast,30,2012-11-22 10:27:00
5:56 AM,46.9,42.1,83,30.21,10.0,NE,4.6,-,N/A,,Overcast,40,2012-11-22 10:56:00
6:56 AM,45.0,39.9,82,30.22,10.0,NNE,5.8,-,N/A,,Partly Cloudy,30,2012-11-22 11:56:00
7:56 AM,48.9,42.1,77,30.23,10.0,NE,5.8,-,N/A,,Clear,50,2012-11-22 12:56:00
8:56 AM,51.1,41.0,68,30.24,10.0,NNE,9.2,-,N/A,,Clear,30,2012-11-22 13:56:00
9:56 AM,51.1,41.0,68,30.24,10.0,NE,12.7,18.4,N/A,,Partly Cloudy,50,2012-11-22 14:56:00
10:56 AM,52.0,41.0,66,30.22,10.0,NNE,10.4,-,N/A,,Mostly Cloudy,20,2012-11-22 15:56:00
11:56 AM,53.1,42.1,66,30.20,10.0,North,6.9,-,N/A,,Mostly Cloudy,10,2012-11-22 16:56:00
12:08 PM,53.6,42.8,67,30.20,10.0,North,9.2,-,N/A,,Scattered Clouds,10,2012-11-22 17:08:00
12:56 PM,53.1,42.1,66,30.19,10.0,NNE,8.1,-,N/A,,Clear,20,2012-11-22 17:56:00
1:56 PM,52.0,42.1,69,30.18,10.0,North,9.2,-,N/A,,Clear,360,2012-11-22 18:56:00
2:41 PM,50.0,41.0,71,30.18,10.0,North,6.9,-,N/A,,Mostly Cloudy,360,2012-11-22 19:41:00
2:56 PM,50.0,42.1,74,30.18,10.0,NNE,6.9,-,N/A,,Mostly Cloudy,20,2012-11-22 19:56:00
3:56 PM,50.0,42.1,74,30.19,10.0,North,4.6,-,N/A,,Overcast,10,2012-11-22 20:56:00
4:56 PM,48.9,42.1,77,30.19,10.0,ENE,3.5,-,N/A,,Overcast,60,2012-11-22 21:56:00
5:56 PM,48.0,41.0,77,30.19,10.0,Calm,Calm,-,N/A,,Overcast,0,2012-11-22 22:56:00
6:56 PM,43.0,39.0,86,30.18,10.0,Calm,Calm,-,N/A,,Scattered Clouds,0,2012-11-22 23:56:00
7:56 PM,39.0,37.0,93,30.17,10.0,Calm,Calm,-,N/A,,Clear,0,2012-11-23 00:56:00
8:56 PM,37.0,34.0,89,30.17,10.0,Calm,Calm,-,N/A,,Clear,0,2012-11-23 01:56:00
9:56 PM,35.1,33.1,92,30.15,10.0,Calm,Calm,-,N/A,,Clear,0,2012-11-23 02:56:00
10:56 PM,34.0,33.1,96,30.14,10.0,Calm,Calm,-,N/A,,Clear,0,2012-11-23 03:56:00
11:56 PM,33.1,32.0,96,30.12,10.0,Calm,Calm,-,N/A,,Clear,0,2012-11-23 04:56:00